HISPASAT 36W-1

Last updated on Sat Mar 14 2026 00:02:56 GMT+0000 (Coordinated Universal Time)

1 41942U 17006A 26072.42037794 -.00000245 00000+0 00000+0 0 9997 2 41942 0.0110 345.4244 0000959 5.3733 295.5746 1.00270593 33285
UTC large
Height (km)
Speed (km/s)
/
Latitude / Longitude
Inclination (degrees)
Orbital Period (minutes)
Azimuth
Elevation
Range (km)
Doppler Factor

Next 0 passes for location: London (51.5072 / 0.1276)

Sorry there are no passes over London.